Regional Weather Roundup
Issued by NWS

Home | Current Version | Previous Version | Graphics & Text | Print | Product List | Glossary On
Versions: 1 2 3 4 5 6 7 8 9 10 11 12 13 14 15 16 17 18 19 20 21 22 23 24 25 26 27 28 29 30 31 32 33 34 35 36 37 38 39 40 41 42 43 44 45 46 47 48 49 50
000
ASUS43 KMKX 301700
RWRWI

WISCONSIN REGIONAL WEATHER ROUNDUP
NATIONAL WEATHER SERVICE MILWAUKEE/SULLIVAN WI
1200 PM CDT THU JUL 30 2015

NOTE: "FAIR" INDICATES FEW OR NO CLOUDS BELOW 12,000 FEET WITH NO
SIGNIFICANT WEATHER AND/OR OBSTRUCTIONS TO VISIBILITY.

WIZ001-002-006>008-014>016-023>028-301800-
NORTHWEST WISCONSIN

CITY           SKY/WX    TMP DP  RH WIND       PRES   REMARKS
SUPERIOR ARPT  MOSUNNY   79  60  52 W10       29.95S HX  80
ASHLAND        SUNNY     80  59  48 W12G18    29.95R HX  81
HAYWARD        MOSUNNY   78  56  46 W8        29.99S
SIREN          SUNNY     78  57  47 NW15      30.01S
CUMBERLAND     SUNNY     75  55  50 W16       30.02R
RICE LAKE      SUNNY     77  60  55 W10G16    30.03R
CHETEK         SUNNY     78  60  53 W7        30.02R
LADYSMITH      SUNNY     78  59  50 W13G24    30.02R
EAU CLAIRE     NOT AVBL
MENOMONIE      SUNNY     81  56  42 W12       30.03R HX  81
NEW RICHMOND   SUNNY     78  59  52 NW13      30.04R
OSCEOLA        SUNNY     78  60  53 W14       30.06R
$$

WIZ003>005-009-010-017-018-301800-
NORTH CENTRAL WISCONSIN

CITY           SKY/WX    TMP DP  RH WIND       PRES   REMARKS
MANITOWISH WTR MOSUNNY   74  55  50 W14G21    29.96S
ARBOR VITAE    MOSUNNY   77  56  47 W12G22    29.97R
WOODRUFF       MOSUNNY   77  56  47 W12G22    29.97R
RHINELANDER    MOSUNNY   78  54  43 NW12G24   29.98R
EAGLE RIVER    MOSUNNY   76  49  38 W20       29.95S
LAND O LAKES   SUNNY     76  49  37 NW13G22   29.96R
PHILLIPS       MOSUNNY   76  56  50 NW10G17   29.99R
TOMAHAWK       MOSUNNY   76  55  47 W9G24     29.99R
MEDFORD        MOSUNNY   76  60  57 W14       30.01S
MERRILL        NOT AVBL
$$

WIZ029-030-035-036-043>047-301800-
CENTRAL WISCONSIN

CITY           SKY/WX    TMP DP  RH WIND       PRES   REMARKS
WAUSAU         SUNNY     81  56  42 W16G29    29.98S HX  81
MOSINEE        NOT AVBL
MARSHFIELD     MOSUNNY   80  57  45 W13G21    30.02S HX  80
STEVENS POINT  SUNNY     77  58  51 SW13G20   30.01S
WAUPACA        SUNNY     83  56  39 W15G22    29.99S HX  82
WAUTOMA        NOT AVBL
WISC RAPIDS    MOSUNNY   83  55  38 W12G22    30.03S HX  82
CAMP DOUGLAS   NOT AVBL
$$

WIZ011>013-019>022-031-037>040-048>050-301800-
NORTHEAST WISCONSIN

CITY           SKY/WX    TMP DP  RH WIND       PRES   REMARKS
ANTIGO         MOSUNNY   77  55  46 W18G31    29.98S
SHAWANO        MOSUNNY   82  56  41 W14G21    29.96S HX  81
OCONTO         SUNNY     82  55  39 NW14G21   29.92S HX  81
STURGEON BAY   SUNNY     79  55  44 W16G22    29.95R
GREEN BAY      SUNNY     82  60  47 W14G20    29.96S HX  82
MANITOWOC      NOT AVBL
APPLETON       MOSUNNY   81  54  39 W16G29    30.00R HX  80
CLINTONVILLE   MOSUNNY   81  55  41 NW9G18    29.97S HX  80
OSHKOSH        SUNNY     83  57  41 W15G25    29.99S HX  82
$$

WIZ032>034-041-042-053>061-301800-
SOUTHWEST WISCONSIN

CITY           SKY/WX    TMP DP  RH WIND       PRES   REMARKS
LA CROSSE      SUNNY     84  57  39 W13       30.05R HX  83
SPARTA         SUNNY     81  53  37 W13       30.05S HX  80
VIROQUA        SUNNY     79  58  48 W10       30.09R HX  80
BOSCOBEL       SUNNY     86  57  37 W9G17     30.07S HX  85
PRAIRIE DU CHI SUNNY     84  51  32 W8        30.07S HX  82
PLATTEVILLE    SUNNY     81  59  47 W7G18     30.10S HX  81
$$

WIZ056-057-062-063-064-067-068-301800-
SOUTH CENTRAL WISCONSIN

CITY           SKY/WX    TMP DP  RH WIND       PRES   REMARKS
REEDSBURG      SUNNY     83  56  40 W16G23    30.05S HX  82
BARABOO/DELLS  SUNNY     83  50  32 W12G24    30.05S HX  81
LONE ROCK      NOT AVBL
MINERAL POINT  SUNNY     81  55  41 W8G17     30.10R HX  80
MADISON        MOSUNNY   83  58  42 W9        30.05S HX  83
MIDDLETON      SUNNY     83  55  36 W15G21    30.07S HX  82
WATERTOWN      SUNNY     81  61  50 W12       30.04S HX  81
MONROE         SUNNY     81  55  41 W10       30.09S HX  80
JANESVILLE     SUNNY     84  55  37 W13G18    30.06S HX  83
$$

WIZ051-052-058>065-066-070>072-301800-
SOUTHEAST WISCONSIN

CITY           SKY/WX    TMP DP  RH WIND       PRES   REMARKS
MILWAUKEE      MOSUNNY   85  52  32 W17G26    30.03R HX  83
WAUKESHA       SUNNY     81  55  41 W14G21    30.05S HX  80
MILWAUKEE/TIMM SUNNY     82  50  32 MISG      30.03S HX  81
RACINE         SUNNY     84  56  38 W13G22    30.05S HX  83
BURLINGTON     SUNNY     81  55  41 W13       30.05S HX  81
KENOSHA        SUNNY     82  60  47 W10       30.05S HX  82
FOND DU LAC    SUNNY     84  59  42 W15       30.00F HX  84
SHEBOYGAN      SUNNY     82  58  43 W16G24    29.99S HX  82
WEST BEND      SUNNY     81  52  36 W21       30.02S HX  80
JUNEAU         SUNNY     78  60  53 W9G17     30.04S HX  80
$$

LSZ147-162-301800-
LAKE SUPERIOR

STATION/POSITION TIME  TEMP    WIND        PRES    WAVE
                       AIR SEA DIR/SP/G            HT/PER
                 (UTC) (F)     (DEG/KT/KT) (MB)    (FT/S)
W MID LAKE BUOY  1550   57 53  240/ 12/ 14 1011.8R   3/ 6
DEVILS ISLAND    1600   64     240/ 16/ 19 1013.2R
PORT WING        1600   73     250/ 10/ 16 1013.9F
SAXON HARBOR     1600   69                 1013.5R
$$

LMZ867-665-643>646-301800-
LAKE MICHIGAN

STATION/POSITION TIME  TEMP    WIND        PRES    WAVE
                       AIR SEA DIR/SP/G            HT/PER
                 (UTC) (F)     (DEG/KT/KT) (MB)    (FT/S)
CHAMBERS ISLAND  1600   76     230/  8/ 13 1012.2S
S GREEN BAY BUOY 1600   68 66  250/ 10/ 12 1014.8
N MID LAKE BUOY  1550   70 68  250/ 16/ 17 1010.8R   3/ 4
NORTHPORT PIER   1600   76     280/  7/ 13 1011.9R
SISTER BAY       1644   79     290/ 15/ 17   N/A
ALGOMA LAKESHORE 1612          320/ 11/ 20   N/A
KEWAUNEE LAKESHO 1600   78     290/ 13/ 20 1013.3R
SHEBOYGAN LAKESH 1600   78     290/ 15/ 20 1015.3R
PORT WASHINGTON  1600   82     300/ 10/ 17 1016.3S
ATWATER BUOY     1600   74 59  280/ 14/ 17 1017.7R
MILWAUKEE LAKESH 1600   80     290/ 16/ 21   N/A
KENOSHA   LAKESH 1600   80     280/ 11/ 16 1016.6S
$$

TC  - TEMPERATURE IN CELSIUS
VSB - VISIBILITY IN STATUTE MILES
WCI - WIND CHILL INDEX
HX  - HEAT INDEX



USA.gov is the U.S. government's official web portal to all federal, state and local government web resources and services.